FW6664 Weather Reports


Display with metric or nautical units.
time (UTC)temp
F
wind
direction
speed
MPH
gust
MPH
rain 1hr
in
rain 24hr
in
rain mn
in
humidity
%
barometer
mb
20260509050345 60 200 0.0 0.0 0.00 0.00 0.00 33 1017.0
20260509050027 59 200 0.0 1.0 0.00 0.00 0.00 33 1017.0
20260509045840 60 200 1.0 0.0 0.00 0.00 0.00 33 1017.0
20260509045528 59 200 1.0 1.0 0.00 0.00 0.00 33 1017.0
20260509045336 60 200 2.0 0.0 0.00 0.00 0.00 33 1017.0
20260509045013 59 200 0.0 1.0 0.00 0.00 0.00 33 1017.0
20260509044849 60 200 2.0 0.0 0.00 0.00 0.00 33 1017.0
20260509044525 59 200 0.0 1.0 0.00 0.00 0.00 33 1017.0
20260509044330 60 200 1.0 0.0 0.00 0.00 0.00 33 1017.0
20260509044055 59 200 0.0 0.0 0.00 0.00 0.00 33 1017.0
20260509043845 60 200 1.0 0.0 0.00 0.00 0.00 33 1017.0
20260509043546 59 200 0.0 1.0 0.00 0.00 0.00 33 1017.0
20260509043339 60 200 1.0 0.0 0.00 0.00 0.00 33 1017.0
20260509043020 60 200 0.0 1.0 0.00 0.00 0.00 33 1017.0
20260509042833 60 200 1.0 0.0 0.00 0.00 0.00 33 1017.0
20260509042511 60 200 1.0 1.0 0.00 0.00 0.00 33 1017.0
20260509042348 60 200 1.0 0.0 0.00 0.00 0.00 33 1017.0
20260509042041 60 200 0.0 1.0 0.00 0.00 0.00 33 1017.0
20260509041846 60 200 1.0 0.0 0.00 0.00 0.00 33 1017.0
20260509041517 60 200 0.0 0.0 0.00 0.00 0.00 33 1017.0
20260509041343 60 200 1.0 0.0 0.00 0.00 0.00 33 1017.0
20260509041013 60 200 0.0 1.0 0.00 0.00 0.00 33 1017.0
20260509040838 60 200 1.0 0.0 0.00 0.00 0.00 33 1017.0
20260509040600 60 200 1.0 1.0 0.00 0.00 0.00 33 1017.0
20260509040501 60 200 1.0 1.0 0.00 0.00 0.00 33 1017.0
20260509040350 60 200 1.0 0.0 0.00 0.00 0.00 33 1017.0
20260509040031 60 200 0.0 2.0 0.00 0.00 0.00 33 1017.0
20260509035904 60 200 1.0 0.0 0.00 0.00 0.00 33 1017.0
20260509035555 60 200 0.0 2.0 0.00 0.00 0.00 33 1017.0
20260509035338 61 200 1.0 0.0 0.00 0.00 0.00 33 1017.0
20260509035024 60 200 0.0 1.0 0.00 0.00 0.00 33 1017.0
20260509034829 61 200 0.0 0.0 0.00 0.00 0.00 33 1017.0
20260509034552 60 200 1.0 1.0 0.00 0.00 0.00 33 1017.0
20260509034344 61 200 1.0 0.0 0.00 0.00 0.00 33 1017.0
20260509034044 60 200 0.0 2.0 0.00 0.00 0.00 33 1017.0
20260509033841 61 200 0.0 0.0 0.00 0.00 0.00 33 1017.0
20260509033537 61 200 0.0 2.0 0.00 0.00 0.00 33 1017.0
20260509033358 61 200 2.0 0.0 0.00 0.00 0.00 33 1017.0
20260509033008 61 200 0.0 1.0 0.00 0.00 0.00 33 1017.0
20260509032831 61 200 0.0 0.0 0.00 0.00 0.00 33 1017.0
20260509032558 61 200 0.0 1.0 0.00 0.00 0.00 33 1017.0
20260509032324 62 200 1.0 0.0 0.00 0.00 0.00 33 1017.0
20260509032052 61 200 1.0 3.0 0.00 0.00 0.00 33 1017.0
20260509031840 62 200 1.0 0.0 0.00 0.00 0.00 33 1017.0
20260509031553 61 200 1.0 3.0 0.00 0.00 0.00 33 1017.0
20260509031331 62 200 2.0 0.0 0.00 0.00 0.00 33 1017.0
20260509031034 61 200 1.0 3.0 0.00 0.00 0.00 33 1017.0
20260509030850 62 200 1.0 0.0 0.00 0.00 0.00 33 1017.0
20260509030509 62 200 2.0 3.0 0.00 0.00 0.00 33 1017.0
20260509030325 62 200 2.0 0.0 0.00 0.00 0.00 33 1017.0
20260509030113 62 200 2.0 2.0 0.00 0.00 0.00 33 1017.0
20260509030001 62 200 2.0 3.0 0.00 0.00 0.00 33 1017.0
20260509025843 62 211 2.0 0.0 0.00 0.00 0.00 33 1017.0
20260509025529 62 211 1.0 4.0 0.00 0.00 0.00 33 1017.0
20260509025337 63 211 3.0 0.0 0.00 0.00 0.00 33 1017.0
20260509025022 62 229 2.0 4.0 0.00 0.00 0.00 33 1017.0
20260509024832 63 159 1.0 0.0 0.00 0.00 0.00 33 1017.0
20260509024515 63 203 2.0 4.0 0.00 0.00 0.00 33 1017.0
20260509024344 63 168 4.0 0.0 0.00 0.00 0.00 33 1017.0
20260509024101 63 221 1.0 5.0 0.00 0.00 0.00 33 1017.0
20260509024005 63 221 1.0 5.0 0.00 0.00 0.00 33 1017.0
20260509023840 64 225 2.0 0.0 0.00 0.00 0.00 33 1017.0
20260509023556 63 204 2.0 5.0 0.00 0.00 0.00 33 1017.0
20260509023332 64 193 3.0 0.0 0.00 0.00 0.00 33 1017.0
20260509023044 64 217 2.0 5.0 0.00 0.00 0.00 33 1017.0
20260509022830 65 232 3.0 0.0 0.00 0.00 0.00 33 1017.0
20260509022515 64 240 3.0 4.0 0.00 0.00 0.00 33 1017.0
20260509022343 65 198 5.0 0.0 0.00 0.00 0.00 33 1017.0
20260509022006 65 195 2.0 4.0 0.00 0.00 0.00 33 1017.0
20260509021836 65 195 3.0 0.0 0.00 0.00 0.00 33 1017.0
20260509021557 65 215 3.0 4.0 0.00 0.00 0.00 33 1017.0
20260509021351 66 223 4.0 0.0 0.00 0.00 0.00 33 1017.0
20260509021029 65 222 2.0 4.0 0.00 0.00 0.00 33 1017.0
20260509020830 66 222 4.0 0.0 0.00 0.00 0.00 33 1017.0
20260509020521 66 223 3.0 4.0 0.00 0.00 0.00 33 1017.0
20260509020343 66 204 4.0 0.0 0.00 0.00 0.00 33 1017.0
20260509015841 66 169 2.0 0.0 0.00 0.00 0.00 33 1017.0
20260509015541 66 174 4.0 6.0 0.00 0.00 0.00 33 1017.0
20260509015334 67 219 7.0 0.0 0.00 0.00 0.00 33 1017.0
20260509015037 67 218 4.0 5.0 0.00 0.00 0.00 33 1017.0
20260509014832 67 225 5.0 0.0 0.00 0.00 0.00 33 1017.0
20260509014531 67 225 4.0 6.0 0.00 0.00 0.00 33 1017.0
20260509014327 68 219 4.0 0.0 0.00 0.00 0.00 33 1017.0
20260509014023 67 211 2.0 6.0 0.00 0.00 0.00 33 1017.0
20260509013843 68 202 2.0 0.0 0.00 0.00 0.00 33 1017.0
20260509013518 68 218 4.0 6.0 0.00 0.00 0.00 33 1017.0
20260509013401 69 245 4.0 0.0 0.00 0.00 0.00 33 1017.0
20260509013046 68 233 4.0 6.0 0.00 0.00 0.00 33 1017.0
20260509012835 69 253 4.0 0.0 0.00 0.00 0.00 33 1017.0
20260509012540 68 216 3.0 5.0 0.00 0.00 0.00 33 1017.0
20260509012330 69 217 2.0 0.0 0.00 0.00 0.00 33 1017.0
20260509012033 68 242 3.0 6.0 0.00 0.00 0.00 33 1017.0
20260509011906 69 225 6.0 0.0 0.00 0.00 0.00 33 1017.0
20260509011601 69 239 2.0 6.0 0.00 0.00 0.00 33 1017.0
20260509011502 69 220 3.0 6.0 0.00 0.00 0.00 33 1017.0
20260509011338 70 237 4.0 0.0 0.00 0.00 0.00 33 1017.0
20260509011051 70 230 3.0 5.0 0.00 0.00 0.00 33 1017.0
20260509010832 71 222 3.0 0.0 0.00 0.00 0.00 33 1017.0
20260509010542 70 264 2.0 6.0 0.00 0.00 0.00 33 1017.0
20260509010329 71 288 4.0 0.0 0.00 0.00 0.00 33 1017.0
20260509010018 70 236 3.0 6.0 0.00 0.00 0.00 33 1017.0
20260509005825 70 207 6.0 0.0 0.00 0.00 0.00 33 1017.0
20260509005514 70 296 3.0 6.0 0.00 0.00 0.00 33 1017.0
20260509005341 71 203 5.0 0.0 0.00 0.00 0.00 33 1017.0
20260509005006 70 220 4.0 6.0 0.00 0.00 0.00 33 1017.0
20260509004838 71 276 3.0 0.0 0.00 0.00 0.00 33 1017.0
20260509004600 71 230 3.0 6.0 0.00 0.00 0.00 33 1017.0
20260509004333 71 224 5.0 0.0 0.00 0.00 0.00 33 1017.0
20260509004052 71 235 4.0 5.0 0.00 0.00 0.00 33 1017.0
20260509003830 71 227 4.0 0.0 0.00 0.00 0.00 33 1017.0
20260509003542 71 233 4.0 6.0 0.00 0.00 0.00 33 1017.0
20260509003326 72 200 4.0 0.0 0.00 0.00 0.00 33 1017.0
20260509003048 71 228 2.0 6.0 0.00 0.00 0.00 33 1017.0
20260509002845 72 221 4.0 0.0 0.00 0.00 0.00 33 1017.0
20260509002532 71 220 4.0 6.0 0.00 0.00 0.00 33 1017.0
20260509002340 72 239 4.0 0.0 0.00 0.00 0.00 33 1017.0
20260509002026 71 231 3.0 6.0 0.00 0.00 0.00 33 1017.0
20260509001855 71 238 4.0 0.0 0.00 0.00 0.00 33 1017.0
20260509001555 71 238 4.0 6.0 0.00 0.00 0.00 33 1017.0
20260509001334 72 237 4.0 0.0 0.00 0.00 0.00 33 1017.0
20260509001049 71 220 5.0 6.0 0.00 0.00 0.00 33 1017.0
20260509000831 72 238 6.0 0.0 0.00 0.00 0.00 33 1017.0
20260509000540 71 209 3.0 6.0 0.00 0.00 0.00 33 1017.0
20260509000325 72 250 4.0 0.0 0.00 0.00 0.00 33 1017.0
20260509000035 71 271 3.0 7.0 0.00 0.00 0.00 33 1017.0
20260508235842 72 249 2.0 0.0 0.00 0.00 0.00 33 1017.0
20260508235526 71 231 5.0 7.0 0.00 0.00 0.00 33 1017.0
20260508235335 72 252 5.0 0.0 0.00 0.00 0.00 33 1017.0
20260508235024 72 242 5.0 8.0 0.00 0.00 0.00 33 1017.0
20260508234831 73 233 3.0 0.0 0.00 0.00 0.00 33 1017.0
20260508234551 72 281 6.0 8.0 0.00 0.00 0.00 33 1017.0
20260508234327 73 221 3.0 0.0 0.00 0.00 0.00 33 1017.0
20260508234043 72 223 4.0 8.0 0.00 0.00 0.00 33 1017.0
20260508233844 72 290 8.0 0.0 0.00 0.00 0.00 33 1017.0
20260508233521 71 226 3.0 9.0 0.00 0.00 0.00 33 1017.0
20260508233341 72 281 2.0 0.0 0.00 0.00 0.00 33 1017.0
20260508233012 71 238 6.0 9.0 0.00 0.00 0.00 33 1017.0
20260508232837 72 266 4.0 0.0 0.00 0.00 0.00 33 1017.0
20260508232504 72 248 6.0 8.0 0.00 0.00 0.00 33 1017.0
20260508232329 73 221 8.0 0.0 0.00 0.00 0.00 33 1017.0
20260508232054 73 225 5.0 7.0 0.00 0.00 0.00 33 1017.0
20260508231845 73 255 3.0 0.0 0.00 0.00 0.00 33 1017.0
20260508231546 73 252 3.0 7.0 0.00 0.00 0.00 33 1017.0
20260508231339 73 215 10.0 0.0 0.00 0.00 0.00 33 1017.0
20260508231039 73 293 3.0 8.0 0.00 0.00 0.00 33 1017.0
20260508230834 73 283 8.0 0.0 0.00 0.00 0.00 33 1017.0
20260508230534 72 216 5.0 8.0 0.00 0.00 0.00 33 1017.0
20260508230329 73 162 4.0 0.0 0.00 0.00 0.00 33 1017.0
20260508230025 72 232 6.0 8.0 0.00 0.00 0.00 33 1017.0
20260508225826 73 305 3.0 0.0 0.00 0.00 0.00 33 1017.0
20260508225520 72 301 5.0 10.0 0.00 0.00 0.00 33 1017.0
20260508225404 73 233 4.0 0.0 0.00 0.00 0.00 33 1017.0
20260508225055 72 297 5.0 10.0 0.00 0.00 0.00 33 1017.0
20260508224902 72 260 7.0 0.0 0.00 0.00 0.00 33 1017.0
20260508224525 72 262 6.0 7.0 0.00 0.00 0.00 33 1017.0
20260508224337 72 242 6.0 0.0 0.00 0.00 0.00 33 1017.0
20260508224023 72 257 4.0 7.0 0.00 0.00 0.00 33 1017.0
20260508223833 73 270 6.0 0.0 0.00 0.00 0.00 33 1017.0
20260508223514 72 281 3.0 9.0 0.00 0.00 0.00 33 1017.0
20260508223329 72 299 5.0 0.0 0.00 0.00 0.00 33 1017.0
20260508223022 71 242 6.0 9.0 0.00 0.00 0.00 33 1017.0
20260508222828 72 217 5.0 0.0 0.00 0.00 0.00 33 1017.0
20260508222538 72 220 5.0 9.0 0.00 0.00 0.00 33 1017.0
20260508222342 72 297 4.0 0.0 0.00 0.00 0.00 33 1017.0
20260508222017 71 250 4.0 6.0 0.00 0.00 0.00 33 1017.0
20260508221838 72 263 5.0 0.0 0.00 0.00 0.00 33 1017.0
20260508221600 71 248 5.0 10.0 0.00 0.00 0.00 33 1017.0
20260508221504 71 258 6.0 10.0 0.00 0.00 0.00 33 1017.0
20260508221337 72 218 6.0 0.0 0.00 0.00 0.00 33 1017.0
20260508221055 71 246 7.0 10.0 0.00 0.00 0.00 33 1017.0
20260508220831 72 173 4.0 0.0 0.00 0.00 0.00 33 1017.0
20260508220545 71 207 5.0 7.0 0.00 0.00 0.00 33 1017.0
20260508220325 72 238 8.0 0.0 0.00 0.00 0.00 33 1017.0
20260508220019 72 265 5.0 8.0 0.00 0.00 0.00 33 1017.0
20260508215841 72 291 7.0 0.0 0.00 0.00 0.00 33 1017.0
20260508215516 72 213 5.0 9.0 0.00 0.00 0.00 33 1017.0
20260508215357 73 221 3.0 0.0 0.00 0.00 0.00 33 1017.0
20260508215040 73 247 7.0 9.0 0.00 0.00 0.00 33 1017.0
20260508214832 73 229 8.0 0.0 0.00 0.00 0.00 33 1017.0
20260508214514 73 250 4.0 9.0 0.00 0.00 0.00 33 1017.0
20260508214328 73 228 9.0 0.0 0.00 0.00 0.00 33 1017.0
20260508214009 73 283 5.0 9.0 0.00 0.00 0.00 33 1017.0
20260508213904 73 237 11.0 0.0 0.00 0.00 0.00 33 1017.0
20260508213536 73 212 7.0 9.0 0.00 0.00 0.00 33 1017.0
20260508213341 74 248 6.0 0.0 0.00 0.00 0.00 33 1017.0
20260508213027 73 279 6.0 9.0 0.00 0.00 0.00 33 1017.0
20260508212835 74 208 6.0 0.0 0.00 0.00 0.00 33 1017.0
20260508212521 74 256 3.0 9.0 0.00 0.00 0.00 33 1017.0
20260508212330 74 219 6.0 0.0 0.00 0.00 0.00 33 1017.0
20260508212012 74 195 9.0 9.0 0.00 0.00 0.00 33 1017.0
20260508211844 75 193 5.0 0.0 0.00 0.00 0.00 33 1017.0
20260508211602 75 241 6.0 7.0 0.00 0.00 0.00 33 1017.0
20260508211503 75 227 6.0 7.0 0.00 0.00 0.00 33 1017.0
20260508211357 75 231 5.0 0.0 0.00 0.00 0.00 33 1017.0
20260508211031 75 233 4.0 12.0 0.00 0.00 0.00 33 1017.0
20260508210831 75 276 2.0 0.0 0.00 0.00 0.00 33 1017.0
20260508210524 75 244 7.0 12.0 0.00 0.00 0.00 33 1017.0
20260508210327 75 227 3.0 0.0 0.00 0.00 0.00 33 1017.0
20260508210026 75 189 4.0 9.0 0.00 0.00 0.00 33 1017.0
20260508205904 75 271 9.0 0.0 0.00 0.00 0.00 33 1017.0
20260508205553 75 206 6.0 9.0 0.00 0.00 0.00 33 1017.0
20260508205340 75 279 8.0 0.0 0.00 0.00 0.00 33 1017.0
20260508205021 75 215 3.0 6.0 0.00 0.00 0.00 33 1017.0
20260508204836 76 242 5.0 0.0 0.00 0.00 0.00 33 1017.0
20260508204515 75 253 3.0 6.0 0.00 0.00 0.00 33 1017.0
20260508204330 75 251 2.0 0.0 0.00 0.00 0.00 33 1017.0
20260508204008 75 229 4.0 6.0 0.00 0.00 0.00 33 1017.0
20260508203828 75 290 5.0 0.0 0.00 0.00 0.00 33 1017.0
20260508203558 75 219 5.0 6.0 0.00 0.00 0.00 33 1017.0
20260508203502 75 285 4.0 6.0 0.00 0.00 0.00 33 1017.0
20260508203343 75 282 7.0 0.0 0.00 0.00 0.00 33 1017.0
20260508203103 75 285 4.0 7.0 0.00 0.00 0.00 33 1017.0
20260508202839 75 276 5.0 0.0 0.00 0.00 0.00 33 1017.0
20260508202546 75 299 3.0 7.0 0.00 0.00 0.00 33 1017.0
20260508202335 75 212 6.0 0.0 0.00 0.00 0.00 33 1017.0
20260508202039 75 234 5.0 7.0 0.00 0.00 0.00 33 1017.0
20260508201830 75 300 2.0 0.0 0.00 0.00 0.00 33 1017.0
20260508201533 75 297 5.0 7.0 0.00 0.00 0.00 33 1017.0
20260508201326 76 241 6.0 0.0 0.00 0.00 0.00 33 1017.0
20260508201029 75 267 4.0 9.0 0.00 0.00 0.00 33 1017.0
20260508200843 76 258 5.0 0.0 0.00 0.00 0.00 33 1017.0
20260508200558 75 271 5.0 9.0 0.00 0.00 0.00 33 1017.0
20260508200323 76 267 8.0 0.0 0.00 0.00 0.00 33 1017.0
20260508200052 76 269 4.0 7.0 0.00 0.00 0.00 33 1017.0
20260508195858 76 269 5.0 0.0 0.00 0.00 0.00 33 1017.0
20260508195525 76 299 6.0 7.0 0.00 0.00 0.00 33 1017.0
20260508195352 76 235 3.0 0.0 0.00 0.00 0.00 33 1017.0
20260508195054 76 281 2.0 6.0 0.00 0.00 0.00 33 1017.0
20260508194830 76 226 4.0 0.0 0.00 0.00 0.00 33 1017.0
20260508194544 75 226 4.0 6.0 0.00 0.00 0.00 33 1017.0
20260508194346 76 256 3.0 0.0 0.00 0.00 0.00 33 1017.0
20260508194018 76 259 4.0 7.0 0.00 0.00 0.00 33 1017.0
20260508193858 77 238 6.0 0.0 0.00 0.00 0.00 33 1017.0
20260508193549 77 260 3.0 7.0 0.00 0.00 0.00 33 1017.0
20260508193336 77 305 4.0 0.0 0.00 0.00 0.00 33 1017.0
20260508193041 76 285 2.0 6.0 0.00 0.00 0.00 33 1017.0
20260508192833 76 290 5.0 0.0 0.00 0.00 0.00 33 1017.0
20260508192539 75 285 3.0 6.0 0.00 0.00 0.00 33 1017.0
20260508192330 76 310 4.0 0.0 0.00 0.00 0.00 33 1017.0
20260508192030 75 279 5.0 6.0 0.00 0.00 0.00 33 1017.0
20260508191826 76 231 3.0 0.0 0.00 0.00 0.00 33 1017.0
20260508191559 75 211 3.0 8.0 0.00 0.00 0.00 33 1017.0
20260508191502 75 299 3.0 8.0 0.00 0.00 0.00 33 1017.0
20260508191405 76 291 8.0 0.0 0.00 0.00 0.00 33 1017.0
20260508191029 75 292 5.0 8.0 0.00 0.00 0.00 33 1017.0
20260508190837 76 274 3.0 0.0 0.00 0.00 0.00 33 1017.0
20260508190522 75 287 2.0 5.0 0.00 0.00 0.00 33 1017.0
20260508190331 75 289 2.0 0.0 0.00 0.00 0.00 33 1017.0
20260508190020 75 297 3.0 5.0 0.00 0.00 0.00 33 1017.0
20260508185830 75 287 3.0 0.0 0.00 0.00 0.00 33 1017.0
20260508185512 74 302 4.0 5.0 0.00 0.00 0.00 33 1017.0
20260508185327 75 286 4.0 0.0 0.00 0.00 0.00 33 1017.0
20260508185009 74 162 2.0 5.0 0.00 0.00 0.00 33 1017.0
20260508184826 74 253 2.0 0.0 0.00 0.00 0.00 33 1017.0
20260508184601 73 288 4.0 5.0 0.00 0.00 0.00 33 1017.0
20260508184504 73 298 3.0 5.0 0.00 0.00 0.00 33 1017.0
20260508184341 74 300 2.0 0.0 0.00 0.00 0.00 33 1017.0
20260508184055 73 300 4.0 5.0 0.00 0.00 0.00 33 1017.0
20260508183837 73 292 2.0 0.0 0.00 0.00 0.00 33 1017.0
20260508183545 72 274 1.0 5.0 0.00 0.00 0.00 33 1017.0
20260508183333 72 273 2.0 0.0 0.00 0.00 0.00 33 1017.0
20260508183027 72 215 1.0 5.0 0.00 0.00 0.00 33 1017.0
20260508182826 72 215 3.0 0.0 0.00 0.00 0.00 33 1017.0
20260508182510 72 289 1.0 2.0 0.00 0.00 0.00 33 1017.0
20260508182401 72 289 3.0 0.0 0.00 0.00 0.00 33 1017.0
20260508182039 71 289 1.0 3.0 0.00 0.00 0.00 33 1017.0
20260508181837 71 289 1.0 0.0 0.00 0.00 0.00 33 1017.0
20260508181535 70 289 2.0 3.0 0.00 0.00 0.00 33 1017.0
20260508181333 70 289 4.0 0.0 0.00 0.00 0.00 33 1017.0
20260508181027 69 266 2.0 5.0 0.00 0.00 0.00 33 1017.0
20260508180830 69 280 1.0 0.0 0.00 0.00 0.00 33 1017.0
20260508180522 69 220 2.0 5.0 0.00 0.00 0.00 33 1017.0
20260508180405 70 215 6.0 0.0 0.00 0.00 0.00 33 1017.0
20260508180049 69 230 1.0 3.0 0.00 0.00 0.00 33 1017.0
20260508175839 69 230 0.0 0.0 0.00 0.00 0.00 33 1017.0
20260508175539 69 230 1.0 4.0 0.00 0.00 0.00 33 1017.0
20260508175331 69 230 3.0 0.0 0.00 0.00 0.00 33 1017.0
20260508175032 69 286 2.0 4.0 0.00 0.00 0.00 33 1017.0
20260508174847 69 272 3.0 0.0 0.00 0.00 0.00 33 1017.0
20260508174522 68 306 2.0 3.0 0.00 0.00 0.00 33 1017.0
20260508174340 69 290 2.0 0.0 0.00 0.00 0.00 33 1017.0
20260508174051 68 290 1.0 4.0 0.00 0.00 0.00 33 1017.0
20260508173833 68 290 2.0 0.0 0.00 0.00 0.00 33 1017.0
20260508173545 67 290 2.0 4.0 0.00 0.00 0.00 33 1017.0
20260508173329 68 291 5.0 0.0 0.00 0.00 0.00 33 1017.0
20260508173016 67 283 0.0 4.0 0.00 0.00 0.00 33 1017.0
20260508172828 66 283 0.0 0.0 0.00 0.00 0.00 33 1017.0
20260508172514 66 283 3.0 4.0 0.00 0.00 0.00 33 1017.0
20260508172345 66 284 3.0 0.0 0.00 0.00 0.00 33 1017.0
20260508172004 65 285 0.0 1.0 0.00 0.00 0.00 33 1017.0
20260508171841 65 285 2.0 0.0 0.00 0.00 0.00 33 1017.0
20260508171555 64 285 1.0 1.0 0.00 0.00 0.00 33 1017.0
20260508171337 64 297 0.0 0.0 0.00 0.00 0.00 33 1017.0
20260508171049 64 296 1.0 1.0 0.00 0.00 0.00 33 1017.0
20260508170857 64 296 2.0 0.0 0.00 0.00 0.00 33 1017.0
20260508170521 64 290 1.0 1.0 0.00 0.00 0.00 33 1017.0
20260508170351 64 285 1.0 0.0 0.00 0.00 0.00 33 1017.0
20260508170053 63 285 1.0 1.0 0.00 0.00 0.00 33 1017.0
20260508165846 63 279 0.0 0.0 0.00 0.00 0.00 33 1017.0
20260508165545 62 279 0.0 1.0 0.00 0.00 0.00 33 1017.0
20260508165342 62 278 0.0 0.0 0.00 0.00 0.00 33 1017.0
20260508165039 61 278 0.0 2.0 0.00 0.00 0.00 33 1017.0
20260508164839 62 279 1.0 0.0 0.00 0.00 0.00 33 1017.0
20260508164535 61 278 1.0 2.0 0.00 0.00 0.00 33 1017.0
20260508164336 62 275 0.0 0.0 0.00 0.00 0.00 33 1017.0
20260508164006 61 275 2.0 2.0 0.00 0.00 0.00 33 1017.0
20260508163831 61 275 2.0 0.0 0.00 0.00 0.00 33 1017.0
20260508163556 61 275 0.0 1.0 0.00 0.00 0.00 33 1017.0
20260508163407 61 275 0.0 0.0 0.00 0.00 0.00 33 1017.0
20260508163032 60 275 0.0 2.0 0.00 0.00 0.00 33 1017.0
20260508162842 61 275 1.0 0.0 0.00 0.00 0.00 33 1017.0
20260508162524 60 275 2.0 2.0 0.00 0.00 0.00 33 1017.0
20260508162339 61 274 4.0 0.0 0.00 0.00 0.00 33 1017.0
20260508162019 60 275 0.0 2.0 0.00 0.00 0.00 33 1017.0
20260508161836 60 275 1.0 0.0 0.00 0.00 0.00 33 1017.0
20260508161511 60 274 0.0 1.0 0.00 0.00 0.00 33 1017.0
20260508161330 60 274 1.0 0.0 0.00 0.00 0.00 33 1017.0
20260508161041 60 274 1.0 2.0 0.00 0.00 0.00 33 1017.0
20260508160847 60 275 3.0 0.0 0.00 0.00 0.00 33 1017.0
20260508160538 59 275 1.0 2.0 0.00 0.00 0.00 33 1017.0
20260508160343 60 274 2.0 0.0 0.00 0.00 0.00 33 1017.0
20260508160030 59 275 2.0 2.0 0.00 0.00 0.00 33 1017.0
20260508155840 60 275 1.0 0.0 0.00 0.00 0.00 33 1017.0
20260508155528 59 274 1.0 2.0 0.00 0.00 0.00 33 1017.0
20260508155337 60 274 2.0 0.0 0.00 0.00 0.00 33 1017.0
20260508155017 59 275 1.0 2.0 0.00 0.00 0.00 33 1017.0
20260508154831 60 274 2.0 0.0 0.00 0.00 0.00 33 1017.0
20260508154511 59 274 1.0 1.0 0.00 0.00 0.00 33 1017.0
20260508154329 60 274 1.0 0.0 0.00 0.00 0.00 33 1017.0
20260508154008 59 274 0.0 1.0 0.00 0.00 0.00 33 1017.0
20260508153828 59 274 0.0 0.0 0.00 0.00 0.00 33 1017.0
20260508153556 59 274 0.0 2.0 0.00 0.00 0.00 33 1017.0
20260508153402 59 274 1.0 0.0 0.00 0.00 0.00 33 1017.0
20260508153030 59 275 1.0 2.0 0.00 0.00 0.00 33 1017.0
20260508152835 59 274 1.0 0.0 0.00 0.00 0.00 33 1017.0
20260508152556 59 274 1.0 2.0 0.00 0.00 0.00 33 1017.0
20260508152333 59 274 1.0 0.0 0.00 0.00 0.00 33 1017.0
20260508152049 59 274 1.0 1.0 0.00 0.00 0.00 33 1017.0
20260508151830 59 274 1.0 0.0 0.00 0.00 0.00 33 1017.0
20260508151543 59 274 0.0 0.0 0.00 0.00 0.00 33 1017.0
20260508151346 59 274 0.0 0.0 0.00 0.00 0.00 33 1017.0
20260508151036 58 275 0.0 0.0 0.00 0.00 0.00 33 1017.0
20260508150842 59 275 0.0 0.0 0.00 0.00 0.00 33 1017.0
20260508150530 58 274 0.0 1.0 0.00 0.00 0.00 33 1017.0
20260508150338 59 274 2.0 0.0 0.00 0.00 0.00 33 1017.0
20260508150045 58 275 0.0 2.0 0.00 0.00 0.00 33 1017.0
20260508145832 59 275 1.0 0.0 0.00 0.00 0.00 33 1017.0
20260508145516 58 274 1.0 2.0 0.00 0.00 0.00 33 1017.0
20260508145328 59 274 3.0 0.0 0.00 0.00 0.00 33 1017.0
20260508145011 58 274 1.0 1.0 0.00 0.00 0.00 33 1017.0
20260508144846 58 275 1.0 0.0 0.00 0.00 0.00 33 1017.0
20260508144506 58 274 0.0 0.0 0.00 0.00 0.00 33 1017.0
20260508144401 58 274 0.0 0.0 0.00 0.00 0.00 33 1017.0
20260508144131 58 274 0.0 0.0 0.00 0.00 0.00 33 1017.0
20260508093026 58 177 0.0 1.0 0.00 0.00 0.00 33 1017.0
20260508092842 58 177 2.0 0.0 0.00 0.00 0.00 33 1017.0
20260508092517 58 177 0.0 1.0 0.00 0.00 0.00 33 1017.0
20260508092337 59 177 2.0 0.0 0.00 0.00 0.00 33 1017.0
20260508092006 58 177 0.0 0.0 0.00 0.00 0.00 33 1017.0
20260508091830 59 177 1.0 0.0 0.00 0.00 0.00 33 1017.0
20260508091609 58 177 0.0 0.0 0.00 0.00 0.00 33 1017.0
20260508091406 59 177 0.0 0.0 0.00 0.00 0.00 33 1017.0
20260508091029 58 177 0.0 0.0 0.00 0.00 0.00 33 1017.0
20260508090841 59 177 0.0 0.0 0.00 0.00 0.00 33 1017.0
20260508090526 58 177 0.0 0.0 0.00 0.00 0.00 33 1017.0
20260508090340 59 177 1.0 0.0 0.00 0.00 0.00 33 1017.0
20260508090019 58 177 0.0 0.0 0.00 0.00 0.00 33 1017.0